User: anonymous   Login
Location: Unspecified
(0.0000°N, 0.0000°E)
Time: 10:09:05
(UTC+00:00)
Language:

COSMOS 2390 - Orbit

View from above orbital plane
View from above orbital plane
View from above satellite
View from above satellite

Ground track
Ground track

The orbit data is extracted from the following two-line orbital elements,

1 27464U 02036A   18113.86717135 +.00000007 +00000-0 -21761-4 0  9995
2 27464 082.4880 045.8424 0024011 290.1159 069.7342 12.44565950717576
Epoch (UTC): 23 April 2018 20:48:43
Eccentricity: 0.0024011
inclination: 82.4880°
perigee height: 1468 km
apogee height: 1506 km
right ascension of ascending node: 45.8424°
argument of perigee: 290.1159°
revolutions per day: 12.44565950
mean anomaly at epoch: 69.7342°
orbit number at epoch: 71757

The dashed part of the orbit path shows where the satellite is in the earth's shadow,  

DLR